This demonstration page uses our WeatherBlox Daily Observations layout. Learn more.

Left ArrowRight Arrow

44.89941, -97.11507

Hourly Observations for July 17, 2016

Temp ( °F °C ) Dew Point ( °F °C ) Humidity (%) Winds ( mph kmh ) Pressure ( in mb ) Visibility ( mi km ) Precip ( " mm )
12:53 am 00:53 Clear 68 20 64 17.8 87 87 VRB 3 6 29.73 1007 10 16 0.00 0.03
1:53 am 01:53 Mostly Clear 68 20 61 16.1 78 78 NNW 7 11 29.75 1007 10 16 0.00 0.00
2:53 am 02:53 Clear 64 17.8 59 15 84 84 Calm 29.73 1007 10 16 0.00 0.00
3:53 am 03:53 Clear 60 15.6 58 14.4 93 93 SSW 3 6 29.74 1007 10 16 0.00 0.00
4:53 am 04:53 Clear 64 17.8 59 15 84 84 WNW 7 11 29.79 1009 10 16 0.00 0.00
5:53 am 05:53 Clear 59 15 56 13.3 90 90 W 7 11 29.82 1010 10 16 0.00 0.00
6:53 am 06:53 Sunny 61 16.1 57 13.9 87 87 WSW 8 13 29.84 1011 10 16 0.00 0.00
7:53 am 07:53 Sunny 64 17.8 60 15.6 87 87 SW 12 19 29.87 1012 10 16 0.00 0.00
8:53 am 08:53 Mostly Cloudy 67 19.4 61 16.1 81 81 WNW 13 20 29.89 1012 10 16 0.00 0.00
9:07 am 09:07 Cloudy 67 19.4 61 16.1 81 81 NW 10 17 29.88 1012 10 16 0.00 0.00
9:53 am 09:53 Cloudy 66 18.9 60 15.6 81 81 W 9 15 29.90 1013 10 16 0.00 0.00
10:53 am 10:53 Cloudy 67 19.4 60 15.6 79 79 NW 12 19 29.92 1013 10 16 0.00 0.00
11:29 am 11:29 Mostly Cloudy 70 21.1 61 16.1 73 73 NW 10 17 29.88 1012 10 16 0.00 0.00
11:39 am 11:39 Mostly Sunny 71 21.7 61 16.1 71 71 WNW 10 17 29.88 1012 10 16 0.00 0.00
11:53 am 11:53 Mostly Sunny 72 22.2 62 16.7 71 71 WNW 12 19 29.92 1013 10 16 0.00 0.00
12:53 pm 12:53 Sunny 75 23.9 61 16.1 62 62 WNW 10 17 29.93 1014 10 16 0.00 0.00
1:53 pm 13:53 Sunny 77 25 61 16.1 58 58 NW 14 22 29.94 1014 10 16 0.00 0.00
2:53 pm 14:53 Sunny 79 26.1 60 15.6 52 52 NW 14 22 29.95 1014 10 16 0.00 0.00
3:53 pm 15:53 Mostly Sunny 79 26.1 58 14.4 49 49 W 13 20 29.96 1014 10 16 0.00 0.00
4:53 pm 16:53 Mostly Sunny 80 26.7 59 15 49 49 WNW 12 19 29.96 1015 10 16 0.00 0.00
5:53 pm 17:53 Mostly Sunny 79 26.1 59 15 50 50 NW 9 15 29.98 1015 10 16 0.00 0.00
6:53 pm 18:53 Sunny 79 26.1 58 14.4 49 49 WNW 10 17 29.98 1015 10 16 0.00 0.00
7:53 pm 19:53 Sunny 77 25 58 14.4 52 52 NW 8 13 29.99 1016 10 16 0.00 0.00
8:53 pm 20:53 Sunny 73 22.8 59 15 62 62 NW 5 7 30.03 1017 10 16 0.00 0.00
9:53 pm 21:53 Clear 69 20.6 59 15 70 70 N 3 6 30.05 1018 10 16 0.00 0.00
10:53 pm 22:53 Clear 68 20 59 15 73 73 Calm 30.07 1018 10 16 0.00 0.00
11:53 pm 23:53 Clear 63 17.2 58 14.4 84 84 SW 3 6 30.10 1019 10 16 0.00 0.00

Powered by AerisWeather